Theta_e
320 320 320 319 319 318 318 318 318 319 318 318 318 317 317 317 317 310 303 311 314 321 325 312 312 308 303 298 300 298 287 285 289 293 295 300 299 302 305 303 307 309 322 340 343
320 319 319 319 319 319 318 318 318 318 318 318 318 318 316 317 308 304 314 322 326 331 317 310 306 305 295 295 297 294 287 289 294 296 296 300 298 300 302 301 302 305 320 342 342
319 319 318 318 317 317 317 317 317 316 317 317 317 316 317 315 302 303 328 329 327 329 318 312 308 303 294 295 293 293 290 295 297 299 299 300 298 302 300 297 300 301 305 310 312
319 318 318 316 315 315 316 315 315 315 316 316 316 315 317 309 289 308 336 335 334 324 318 312 306 295 292 292 295 290 295 298 298 301 299 299 300 300 301 301 304 304 305 306 305
317 317 316 315 315 315 314 315 315 315 315 315 315 316 311 299 300 310 324 323 327 319 317 309 304 295 290 294 295 292 294 297 298 300 300 300 299 299 299 304 305 305 306 304 303
317 315 314 314 314 314 315 315 315 315 315 315 315 316 306 293 307 310 310 309 319 316 312 308 303 302 295 295 293 295 296 297 298 295 297 297 299 298 301 304 304 303 303 304 304
316 315 314 315 314 315 315 315 314 315 314 315 315 312 303 298 309 309 308 305 313 314 308 310 309 301 298 296 298 297 292 296 296 295 294 297 295 296 301 303 302 302 302 302 304
316 315 315 315 315 315 315 315 314 314 314 314 315 311 299 310 310 309 309 309 312 315 312 310 310 304 296 298 298 292 290 289 294 296 296 297 292 298 301 301 301 301 302 302 302
313 313 313 314 315 315 314 313 313 313 313 314 311 306 297 314 309 312 311 307 312 311 314 315 305 299 297 292 288 289 286 286 291 297 297 295 293 298 301 300 299 300 301 303 303
312 311 312 312 311 313 312 312 310 311 310 313 312 302 305 303 310 314 313 311 309 309 308 306 299 294 293 286 284 285 286 289 289 294 296 294 294 297 299 299 300 299 302 302 303
310 311 311 311 312 311 308 301 297 298 304 301 302 302 305 310 313 311 314 310 309 304 298 301 294 291 293 293 292 293 291 290 293 297 294 293 295 297 299 298 298 299 301 302 303
310 310 310 311 311 310 306 295 300 301 296 306 306 306 308 309 302 306 311 304 302 296 297 297 293 298 299 297 294 293 291 291 294 297 293 294 294 298 298 299 300 301 301 302 303
310 310 310 310 309 304 300 302 309 305 293 299 304 304 304 307 302 302 308 305 300 296 295 292 297 302 299 297 295 293 291 292 291 295 296 293 292 294 298 300 302 302 303 303 304
310 309 310 309 300 299 296 300 303 304 289 295 300 304 305 306 300 308 309 305 299 296 296 294 300 300 298 296 297 290 297 296 294 293 286 293 284 291 296 298 301 303 301 305 309
309 310 309 309 300 297 300 301 305 302 277 296 304 312 305 301 303 306 310 306 297 296 296 293 297 296 296 297 300 294 299 297 296 293 288 290 285 289 294 295 297 300 303 304 314
309 309 309 302 298 301 303 303 300 288 279 294 306 304 302 302 304 308 306 308 305 299 298 296 303 301 299 302 302 302 298 295 295 290 284 289 287 287 291 295 298 300 305 309 313
308 308 306 305 293 300 301 297 285 281 294 295 299 300 300 300 302 303 301 300 295 290 290 295 297 301 304 298 301 298 293 285 283 282 281 289 287 288 296 300 302 303 304 309 310
307 306 303 303 303 302 299 292 280 289 290 296 295 296 294 297 298 299 300 296 300 298 292 289 287 298 303 298 293 292 293 282 277 279 281 291 285 289 300 305 307 309 309 311 312
305 298 298 302 305 302 295 284 285 290 294 292 294 292 294 296 297 296 297 297 299 300 292 291 291 301 302 302 299 294 288 294 286 289 284 286 292 303 306 304 307 309 311 311 314
298 294 297 307 308 304 293 288 289 295 295 295 289 294 291 294 293 293 296 301 298 302 303 296 289 298 300 302 302 297 296 287 289 280 279 286 292 294 300 302 304 305 304 307 315
293 290 302 310 311 301 290 290 295 300 300 296 293 292 293 293 294 294 296 300 303 301 302 298 293 293 299 296 294 293 292 292 291 288 281 284 287 302 301 301 302 302 306 308 307
291 284 300 304 291 293 290 294 296 296 300 298 299 297 295 292 289 288 293 297 304 303 298 297 294 288 291 299 302 299 294 291 285 285 288 290 289 306 304 304 306 306 308 310 311
291 288 300 301 288 289 293 293 295 296 297 297 296 298 299 294 289 294 296 301 304 302 300 298 291 285 289 295 299 297 296 296 293 292 289 286 287 304 306 305 305 304 306 309 311
291 287 294 293 295 290 287 289 291 298 296 298 297 299 294 291 295 294 295 300 303 303 306 304 293 290 284 291 296 294 297 298 294 287 290 291 294 300 302 303 305 305 303 305 307
296 293 291 283 287 288 289 291 288 290 296 297 296 294 291 287 290 291 296 297 301 303 302 301 291 293 293 297 296 297 297 297 295 294 290 293 296 298 301 303 305 307 307 308 310
293 290 293 288 289 289 289 289 290 291 293 293 293 295 292 288 290 290 293 296 294 300 299 298 291 294 290 294 295 295 297 298 298 298 297 297 297 305 303 305 303 305 306 307 307
294 294 293 290 287 286 289 289 291 292 295 296 296 295 291 292 297 299 299 300 298 297 296 293 293 292 287 295 292 289 294 296 297 300 300 294 298 303 304 302 302 303 306 305 305
Wind_Speed
12 12 10 10 12 13 14 14 14 15 16 17 16 16 17 19 21 10 12 17 16 18 4 3 3 3 3 4 4 4 3 5 7 6 7 3 6 6 6 7 6 9 7 14 17
12 13 12 13 13 12 13 14 16 16 17 17 16 16 18 20 15 14 20 21 24 11 7 7 5 3 2 5 3 5 6 10 8 5 7 9 2 4 5 9 7 9 10 9 11
12 11 10 13 14 14 15 15 15 16 17 17 16 17 17 16 6 10 6 20 24 20 7 5 3 4 6 4 5 6 8 9 5 12 12 15 3 4 1 4 4 3 4 8 5
12 12 12 14 15 15 15 17 17 18 17 15 14 14 15 4 9 2 5 9 10 14 11 6 5 3 6 8 8 5 6 10 8 14 8 12 3 4 5 8 5 7 4 3 3
11 14 15 16 16 16 17 17 17 17 16 17 15 12 7 5 17 12 21 16 6 16 17 14 11 6 4 5 8 9 5 6 10 15 19 12 15 9 8 8 8 8 10 6 7
12 16 19 19 19 19 18 18 17 16 16 16 13 9 5 17 8 11 6 6 6 10 13 10 8 11 4 7 8 6 14 19 15 12 12 14 16 4 5 8 7 9 12 12 9
14 16 19 18 17 19 19 19 18 18 19 17 14 8 11 34 5 9 18 5 4 12 10 16 14 8 11 6 7 10 10 12 12 8 10 8 17 11 7 6 9 10 11 11 12
19 18 18 19 20 21 22 23 22 24 22 18 14 9 14 8 9 17 7 11 12 14 15 7 13 10 2 7 7 5 6 17 8 8 8 10 27 11 7 8 11 11 10 9 12
20 20 20 21 21 21 23 26 29 29 20 13 7 5 14 10 9 14 17 12 3 13 14 16 7 7 4 6 5 5 11 7 4 9 8 13 23 8 10 9 10 11 11 12 13
20 21 21 21 21 21 23 26 27 13 2 6 4 6 8 8 7 6 8 16 5 5 11 12 6 9 12 6 14 5 2 5 7 5 8 10 19 7 8 10 14 11 14 13 14
23 21 21 22 22 20 15 8 5 3 3 10 13 11 14 10 12 5 2 8 5 3 12 7 6 21 15 13 5 5 6 8 5 13 6 10 19 17 15 10 9 10 10 9 11
23 23 24 25 25 24 10 3 7 2 13 19 28 30 31 15 18 20 9 8 8 13 7 8 21 8 8 8 10 10 9 16 6 12 6 14 19 21 14 15 15 14 10 11 8
22 22 23 25 27 7 4 10 8 10 7 11 18 15 16 19 20 24 6 9 7 11 12 15 9 17 11 12 12 13 15 13 12 8 8 6 16 9 9 13 7 8 9 7 10
24 23 22 22 8 6 10 4 6 7 5 10 6 6 11 10 9 22 12 9 7 17 12 12 19 14 20 16 13 15 16 13 17 9 9 5 8 4 6 9 6 9 7 8 6
26 25 23 12 12 6 7 8 12 2 6 6 3 2 5 14 4 4 19 10 12 8 9 11 18 18 19 22 18 16 11 15 20 15 5 8 1 9 3 7 7 9 7 7 7
28 29 22 8 4 14 7 9 3 4 10 5 5 11 4 7 9 9 8 12 7 8 13 10 9 18 21 19 19 17 15 11 17 4 6 17 8 7 5 8 5 3 9 7 13
32 35 23 6 6 2 3 1 4 4 8 2 6 10 3 5 6 12 10 11 7 12 12 10 16 12 13 17 21 18 12 4 5 5 10 7 6 8 6 6 6 6 12 8 7
34 34 8 7 11 7 3 5 2 6 9 18 17 20 4 3 5 12 6 9 13 9 4 5 9 14 12 18 8 5 17 6 6 4 6 1 6 6 8 2 4 12 15 12 12
31 5 6 3 8 6 5 3 6 3 8 13 24 8 1 2 5 5 5 6 6 14 8 5 7 4 14 11 10 12 7 16 2 0 4 2 7 5 15 13 11 19 12 13 11
10 5 5 5 12 3 3 5 5 7 17 19 10 8 7 5 4 3 7 6 7 15 10 10 4 5 6 2 11 11 5 5 2 5 3 5 3 1 10 11 3 13 9 6 10
4 6 5 12 1 3 3 5 12 20 18 6 5 8 11 14 7 8 9 5 10 16 13 12 10 4 4 8 13 6 8 4 8 6 6 2 1 3 6 8 8 8 6 10 9
4 5 4 7 0 0 2 5 19 21 22 6 8 14 3 1 3 2 7 3 2 2 5 6 4 6 8 1 4 5 5 5 6 4 4 6 4 1 9 12 6 7 9 9 14
6 5 6 3 5 6 6 12 17 15 14 6 4 2 4 4 5 14 4 3 1 3 3 5 0 2 2 3 2 5 7 12 5 6 7 8 4 3 11 10 7 6 7 9 12
3 5 5 4 2 4 8 7 13 10 13 12 9 8 3 5 3 8 4 3 3 3 7 1 5 6 7 3 2 6 3 5 7 5 5 5 7 7 11 7 2 4 8 10 12
2 2 3 5 9 13 10 5 13 13 6 18 4 2 0 5 5 6 6 2 3 3 2 2 7 5 3 3 5 2 5 4 5 3 6 6 9 12 15 15 10 5 3 11 10
3 4 4 7 7 7 6 5 13 20 12 11 11 10 9 7 11 9 10 4 5 5 3 4 2 4 4 4 0 9 6 6 4 7 7 3 8 4 4 10 10 8 3 10 12
3 3 3 4 4 6 5 11 20 18 8 15 16 12 7 14 8 11 14 13 11 7 5 4 4 3 5 15 13 3 13 9 6 5 5 5 5 10 5 7 3 12 16 16 13
Wind_Direction
341 340 333 329 325 326 325 322 317 318 321 321 324 328 331 324 314 300 234 222 202 233 179 289 241 243 157 222 214 145 110 218 238 189 246 266 12 315 275 344 337 348 130 162 160
337 340 341 340 334 326 321 322 320 320 320 322 325 328 329 324 312 261 235 230 218 171 176 189 213 174 200 216 222 163 173 218 219 217 268 282 8 314 338 346 343 1 10 127 147
336 334 338 335 330 325 324 319 317 314 316 318 321 325 327 323 294 249 290 218 220 209 212 191 208 182 194 209 216 198 216 220 270 242 258 275 303 240 226 301 224 307 315 332 30
339 336 334 333 323 320 316 315 313 311 310 307 310 318 312 303 278 235 45 53 196 189 204 223 225 196 212 206 209 250 229 211 255 271 268 270 239 254 200 239 251 271 199 180 323
339 342 336 325 322 318 315 307 301 301 301 302 306 310 328 271 248 272 297 308 125 179 191 200 205 161 207 210 226 231 234 258 251 252 260 271 262 251 212 242 289 304 310 279 187
326 332 329 327 323 317 307 303 299 294 290 291 291 292 244 257 239 248 284 325 189 185 207 193 197 206 259 231 203 236 216 243 253 254 259 254 262 208 237 223 243 284 285 288 282
312 323 322 317 311 309 306 303 297 290 291 287 278 253 243 245 260 294 301 275 303 199 202 209 213 186 168 293 231 239 262 266 241 238 237 235 264 231 221 253 241 239 255 267 276
331 329 322 313 308 309 307 305 301 290 286 281 267 248 252 271 263 269 255 262 228 225 219 203 212 223 196 313 328 206 209 250 263 241 257 178 256 247 215 232 253 255 255 257 258
330 327 325 322 312 308 310 308 300 291 283 258 235 190 259 303 247 255 222 234 238 215 219 224 159 206 212 214 317 220 248 234 257 207 221 198 255 237 230 217 236 252 256 251 256
330 328 325 321 320 314 313 309 294 297 212 193 240 203 253 241 205 223 163 195 194 212 212 217 202 204 224 169 218 236 229 232 214 250 201 247 255 259 249 217 235 233 248 237 228
329 326 324 320 317 315 321 337 8 48 228 203 197 230 281 216 303 310 181 162 180 187 203 210 192 222 224 229 244 262 231 254 230 236 214 249 263 259 251 236 232 237 236 239 237
326 325 324 319 317 315 309 240 227 342 293 230 240 242 244 259 278 274 273 191 167 214 182 235 232 229 215 225 199 229 255 255 295 260 200 252 257 252 233 229 228 227 239 246 240
321 320 319 316 316 328 208 230 265 327 276 270 241 236 238 191 232 250 204 190 182 198 207 221 249 211 226 233 231 227 235 249 246 295 264 274 286 232 224 211 217 236 239 233 228
320 317 317 323 332 339 281 294 317 294 303 280 238 255 174 140 236 224 206 199 209 201 206 236 231 257 212 234 225 233 232 246 259 260 258 134 270 249 200 201 206 229 216 188 173
318 314 316 319 290 276 252 347 328 98 326 272 330 37 124 166 227 196 193 191 196 190 176 215 195 221 233 228 234 251 240 241 249 249 261 262 191 269 241 235 241 227 172 240 106
319 313 315 297 219 243 304 330 333 64 251 287 32 8 75 293 316 334 161 230 175 210 232 236 227 206 228 237 235 245 247 303 294 225 237 245 161 271 194 199 247 156 149 165 115
319 314 307 232 225 150 219 10 53 199 309 239 48 1 13 312 285 306 199 210 194 190 225 243 248 260 263 223 235 222 220 202 276 192 220 198 189 214 246 208 241 222 159 148 107
321 311 264 198 211 270 23 65 215 275 264 311 346 332 315 14 278 230 276 196 197 231 149 178 252 232 241 226 193 210 194 179 207 224 220 277 250 258 268 54 125 131 128 121 103
323 314 289 248 149 134 87 151 223 252 308 342 326 303 198 293 231 339 238 219 238 189 182 172 242 297 210 208 172 241 194 202 169 338 80 278 318 37 355 110 131 127 127 119 110
322 324 283 126 152 121 60 238 255 288 297 306 295 268 290 308 301 324 228 222 219 208 182 185 295 261 239 228 251 223 208 149 48 155 97 305 89 27 348 349 324 111 89 66 106
356 358 309 96 42 74 235 249 314 316 318 288 265 285 278 271 245 267 249 220 206 209 216 165 175 258 345 195 226 244 221 198 131 138 136 185 234 158 51 17 22 2 56 89 75
356 347 257 339 220 191 343 9 305 294 318 259 227 275 290 105 284 342 264 279 18 62 182 182 149 217 228 256 327 228 270 156 149 189 158 114 255 117 69 46 13 44 59 62 70
323 276 296 80 34 354 306 300 293 322 321 296 254 194 268 274 255 231 200 307 162 300 199 167 117 115 337 355 250 200 233 219 97 122 200 157 224 170 86 53 1 38 55 68 71
323 328 333 8 39 355 316 306 340 345 313 344 306 281 319 262 201 289 223 165 198 200 333 34 157 180 176 161 241 167 196 114 150 129 148 185 148 143 111 130 51 36 74 64 60
267 341 35 316 330 317 311 326 333 338 329 307 255 239 58 288 285 235 209 138 222 98 280 322 184 139 69 323 2 4 97 114 103 124 130 185 146 161 148 144 149 190 111 98 92
352 341 348 286 283 307 306 326 315 329 327 312 309 293 186 227 251 304 326 213 201 153 282 309 48 110 352 309 199 252 136 113 105 102 96 88 109 152 140 138 140 122 169 100 106
310 293 261 276 287 319 291 332 316 331 301 316 313 279 242 288 301 266 273 265 265 149 211 127 136 136 181 172 167 242 179 188 148 146 143 169 134 141 131 120 191 140 134 122 121